Terminal Aerodrome Forecast
Issued by NWS

Home | Current Version | Previous Version | Text Only | Print | Product List | Glossary On
Versions: 1 2 3 4 5 6 7 8 9 10 11 12 13 14 15 16
000
FTUS45 KPSR 011722
TAFIPL
TAF
KIPL 011722Z 0118/0218 VRB06KT P6SM VCSH BKN120 BKN200
     FM012000 18011KT P6SM FEW120 BKN200
     FM020200 24012KT P6SM BKN150 BKN250
     FM021000 VRB05KT P6SM FEW150 SCT250=

USA.gov is the U.S. government's official web portal to all federal, state and local government web resources and services.